Torna al catalogo

ARIANE 6004 ULPM

AttivoMEO
NORAD 67161·ROCKET BODY·🇪🇺 EU
Questo nome del satellite non è ancora stato confermato da fonti ufficiali.

Lanciato Dec 17, 2025 da Guiana Space Centre

Loading…

Prossimi Passaggi (prossime 24 ore)

TLE

AggiornatoSource: Space-Track

Epoca: Sep 12, 2026, 23:11 UTC

1 67161U 25302B   26255.96663635  .00000006  00000-0  00000-0 0  9993
2 67161  54.3992  99.3160 0004231 268.9990  91.0374  1.72972845  4683

Traccia ARIANE 6004 ULPM in tempo reale con AllMySat

Download on the App Store